Location: Alladorf
(49.9620°N, 11.3790°E)
Time: 20:16:51
(UTC+00:00)

EXPRESS MD2 - Pass Details

Date: 29 November 2020
Orbit: 262 x 3990 km, 49.9° (Epoch: 24 January)

Event Time Altitude Azimuth Distance (km) Brightness Sun altitude
Exits shadow 03:51:52 43° 89° (E) 780 4.4 -27.6°
Drops below altitude 10° 03:55:45 10° 90° (E) 2,411 7.6 -27.0°
Sets 03:59:19 0° 91° (E) 3,930 9.0 -26.4°
